Location: Chiroubles
(46.1812°N, 4.6660°E)
Time: 03:36:23
(UTC+00:00)

Terra - Pass Details

Date: 15 August 2020
Orbit: 701 x 703 km, 98.2° (Epoch: 27 September)

Event Time Altitude Azimuth Distance (km) Brightness Sun altitude
Exits shadow 22:06:41 47° 248° (WSW) 935 2.4 -26.1°
Maximum altitude 22:06:59 48° 261° (W) 926 2.4 -26.2°
Drops below altitude 10° 22:11:37 10° 335° (NNW) 2,182 5.4 -26.5°
Sets 22:13:57 0° 342° (NNW) 3,105 6.4 -26.7°
